[[{"header":{"parameterUnit":"m.s-1","parameterCategory":1,"la1":30.2991,"la2":30.254,"lo1":-89.0895,"lo2":-89.0444,"dy":0.0017,"dx":0.0017,"nx":28,"ny":28,"refTime":"2025-04-09T09:00:00:Z","depth":0,"parameterNumber":2,"parameterNumberName":"U-component_of_WINDS"},"data":[0,0,0,0,0,0,0,0,0,0,0,0,0,0,0,0,0,0,0,0,0,0,0,0,0,0,0,0,0,0,0,0,0,0,0,0,0,0,0,0,0,0,0,0,0,0,0,0,0,0,0,0,0,0,0,0,0,0,3.1471,3.1472,0,3.1563,3.1565,3.1566,3.1589,3.1588,3.1587,3.1587,3.1686,3.1689,3.1692,0,0,0,0,0,0,0,0,0,0,0,0,0,3.1321,3.1324,3.1471,3.1472,3.1474,3.1563,3.1565,3.1566,3.1589,3.1588,3.1587,3.1587,3.1685,3.1688,3.1692,0,0,0,0,0,0,0,0,0,0,0,0,0,3.1397,3.1325,3.1471,3.1496,3.1499,3.1563,3.1565,3.1566,3.1589,3.1588,3.1587,3.1586,3.1683,3.1688,3.1693,3.174,0,0,3.1707,3.171,0,0,0,0,0,0,0,0,3.1393,3.1403,3.1491,3.1494,3.1498,3.1564,3.1548,3.1625,3.1589,3.1555,3.1587,3.1586,3.1646,3.1654,3.1673,3.1745,3.1749,3.1708,3.1711,3.1713,3.1714,0,0,0,0,0,0,0,3.1388,3.1399,3.1508,3.1492,3.1496,3.1504,3.1514,3.1563,3.1605,3.1558,3.156,3.157,3.1648,3.1669,3.1676,3.1751,3.1708,3.1712,3.1715,3.1717,3.1869,3.187,0,0,0,0,0,0,3.1377,3.1394,3.1505,3.1511,3.1442,3.1508,3.1519,3.1543,3.1604,3.1612,3.1571,3.1571,3.1661,3.167,3.1679,3.174,3.1713,3.1717,3.172,3.1867,3.1869,3.187,0,0,0,0,0,0,3.1374,3.1387,3.1501,3.1453,3.1468,3.1511,3.1539,3.1546,3.1566,3.1614,3.1622,3.1584,3.1661,3.1673,3.1725,3.1743,3.1719,3.1724,3.1866,3.1868,3.187,3.186,0,0,0,0,0,0,3.137,3.1386,3.1402,3.1453,3.1471,3.1543,3.154,3.1548,3.1574,3.1575,3.1628,3.1636,3.1661,3.1718,3.173,3.175,3.1728,3.1865,3.1867,3.1869,3.1859,3.1862,3.1864,0,0,0,0,0,3.1364,3.1397,3.1403,3.1416,3.1492,3.1544,3.1555,3.1581,3.1575,3.1594,3.1625,3.1634,3.174,3.1723,3.1737,3.1758,3.1864,3.1866,3.1869,3.1858,3.1861,3.1864,0,0,0,0,0,0,3.1348,3.1404,3.1411,3.1461,3.1498,3.1548,3.1572,3.1583,3.1623,3.1622,3.1655,3.1667,3.1717,3.1744,3.1724,3.1809,3.1802,3.1808,3.1789,3.1792,3.1795,3.1787,3.1731,0,0,0,0,0,3.135,3.1386,3.1434,3.1473,3.1491,3.1528,3.1552,3.1569,3.1609,3.1625,3.166,3.1699,3.1742,3.1769,3.181,3.1864,3.1877,3.1886,3.1888,3.189,3.1894,3.1925,3.193,3.1879,3.1879,3.1879,0,0,3.1354,3.139,3.141,3.1471,3.1501,3.1539,3.1541,3.1581,3.161,3.1632,3.1683,3.171,3.1757,3.181,3.1836,3.1834,3.1911,3.1893,3.1894,3.1897,3.1928,3.1933,3.1938,3.1881,3.188,3.188,0,0,3.1382,3.1412,3.1448,3.1479,3.1525,3.155,3.1559,3.1609,3.1627,3.1679,3.1696,3.1733,3.1805,3.1838,3.1864,3.1908,3.1919,3.1921,3.1931,3.1962,3.1966,3.197,3.1986,3.1991,3.1925,3.1925,3.1925,0,3.1382,3.1439,3.1466,3.1506,3.1533,3.1553,3.1592,3.1621,3.1678,3.1697,3.1694,3.1786,3.1819,3.1881,3.1892,3.1912,3.1925,3.1914,3.1963,3.1967,3.1971,3.1987,3.1992,3.1925,3.1925,3.1925,3.1925,0,3.1437,3.1477,3.1501,3.1555,3.1585,3.1624,3.1659,3.1687,3.1702,3.1729,3.1783,3.1823,3.1874,3.189,3.1906,3.1956,3.1953,3.1956,3.195,3.1975,3.199,3.1997,3.1924,3.1924,3.1925,3.1925,0,0,3.1455,3.1525,3.1533,3.1559,3.1613,3.1645,3.1686,3.1734,3.1758,3.1798,3.1834,3.1896,3.1899,3.1929,3.195,3.1977,3.2009,3.1977,3.1979,3.1981,3.2067,3.2064,3.207,3.2018,3.2019,3.202,3.2063,0,3.1489,3.1561,3.1588,3.1647,3.1685,3.1707,3.1744,3.1781,3.1808,3.1846,3.1876,3.1919,3.192,3.1938,3.1966,3.1999,3.2027,3.1997,3.2053,3.2054,3.2039,3.2078,3.2074,3.2112,3.2069,3.207,3.2071,0,3.1537,3.1577,3.164,3.1691,3.1708,3.1739,3.1787,3.1822,3.1867,3.1885,3.1919,3.1938,3.1985,3.1977,3.2042,3.2021,3.2046,3.2066,3.2068,3.2074,3.2063,3.2084,3.2125,3.2131,3.2081,3.208,3.2079,0,3.1544,3.1613,3.166,3.1682,3.1742,3.1764,3.1791,3.1834,3.1862,3.1905,3.1924,3.1972,3.1998,3.2036,3.2069,3.206,3.2132,3.2126,3.2148,3.2148,3.2161,3.216,3.2206,3.2179,3.2179,3.2179,3.2178,0,3.1578,3.1616,3.1664,3.1693,3.1737,3.1769,3.1812,3.1841,3.188,3.1916,3.194,3.1973,3.2015,3.2055,3.2081,3.2132,3.2144,3.216,3.2167,3.2157,3.2155,3.2173,3.2171,3.218,3.218,3.218,3.2179,0,3.1591,3.1625,3.1678,3.1731,3.1746,3.1776,3.1822,3.1852,3.1881,3.1926,3.1939,3.1984,3.2033,3.207,3.2133,3.2151,3.2204,3.2212,3.2188,3.2192,3.2212,3.2209,3.2271,3.2281,3.2247,3.2247,3.2248,0,3.161,3.164,3.1697,3.1722,3.1748,3.1789,3.1818,3.1852,3.1882,3.1936,3.196,3.201,3.2051,3.2129,3.2168,3.2217,3.2226,3.2244,3.2233,3.2223,3.2226,3.2223,3.2226,3.2245,3.2245,3.2245,3.2245,0,3.1641,3.1657,3.1696,3.1743,3.1777,3.1815,3.1854,3.1874,3.1916,3.1949,3.1998,3.203,3.2095,3.2145,3.2199,3.2228,3.2244,3.2249,3.2257,3.2247,3.2232,3.224,3.2192,3.2247,3.2247,3.2247,3.2247,3.2246,3.1658,3.1685,3.173,3.1774,3.1807,3.1844,3.1875,3.1908,3.1949,3.2003,3.2022,3.2073,3.212,3.2193,3.2224,3.2266,3.2266,3.2277,3.228,3.2282,3.2281,3.2227,3.2276,3.2276,3.2276,3.2276,3.2276,0,3.1689,3.1719,3.176,3.1813,3.1849,3.1861,3.1906,3.1935,3.1979,3.2021,3.2061,3.2119,3.2168,3.2213,3.2264,3.2289,3.2298,3.2302,3.23,3.2307,3.2278,3.2266,3.2294,3.2294,3.2294,3.2294,3.2294,3.2294,3.1709,3.1757,3.1779,3.1844,3.1875,3.1924,3.1948,3.1983,3.2017,3.208,3.212,3.2148,3.2192,3.2247,3.2294,3.2306,3.2324,3.2325,3.2339,3.2311,3.2309,3.2306,3.2295,3.2329,3.2329,3.2364,3.2365,3.2365]},{"header":{"parameterUnit":"m.s-1","parameterCategory":1,"la1":30.2991,"la2":30.254,"lo1":-89.0895,"lo2":-89.0444,"dy":0.0017,"dx":0.0017,"nx":28,"ny":28,"refTime":"2025-04-09T09:00:00:Z","depth":0,"parameterNumber":3,"parameterNumberName":"V-component_of_WINDS"},"data":[0,0,0,0,0,0,0,0,0,0,0,0,0,0,0,0,0,0,0,0,0,0,0,0,0,0,0,0,0,0,0,0,0,0,0,0,0,0,0,0,0,0,0,0,0,0,0,0,0,0,0,0,0,0,0,0,0,0,3.6839,3.6841,0,3.6973,3.6975,3.6976,3.7018,3.7018,3.7017,3.7017,3.7146,3.715,3.7153,0,0,0,0,0,0,0,0,0,0,0,0,0,3.661,3.6614,3.6839,3.6841,3.6842,3.6973,3.6975,3.6977,3.7018,3.7018,3.7017,3.7016,3.7144,3.7149,3.7154,0,0,0,0,0,0,0,0,0,0,0,0,0,3.6723,3.6616,3.6839,3.6879,3.6884,3.6973,3.6975,3.6977,3.7019,3.7018,3.7017,3.7016,3.7143,3.7149,3.7155,3.721,0,0,3.7173,3.7175,0,0,0,0,0,0,0,0,3.6717,3.6732,3.6872,3.6877,3.6882,3.6978,3.6942,3.7055,3.7019,3.6967,3.7016,3.7015,3.709,3.71,3.7127,3.7216,3.7221,3.7173,3.7177,3.718,3.7181,0,0,0,0,0,0,0,3.6709,3.6726,3.6892,3.6873,3.688,3.6888,3.6903,3.6963,3.7032,3.6972,3.6975,3.6991,3.7093,3.7121,3.7131,3.7223,3.7173,3.7179,3.7182,3.7185,3.7362,3.7363,0,0,0,0,0,0,3.6696,3.6719,3.6888,3.6896,3.6796,3.6893,3.691,3.6948,3.7031,3.7043,3.6991,3.6992,3.7112,3.7124,3.7135,3.7205,3.718,3.7185,3.7189,3.7361,3.7362,3.7363,0,0,0,0,0,0,3.6691,3.671,3.6882,3.6809,3.6831,3.6898,3.6941,3.6951,3.698,3.7047,3.7058,3.7009,3.7111,3.7127,3.7191,3.721,3.7188,3.7193,3.7359,3.7361,3.7363,3.7344,0,0,0,0,0,0,3.6684,3.6708,3.6732,3.6809,3.6835,3.6938,3.6942,3.6955,3.6991,3.6994,3.7066,3.7077,3.7112,3.7182,3.7197,3.7218,3.7198,3.7358,3.736,3.7362,3.7343,3.7345,3.7346,0,0,0,0,0,3.6676,3.672,3.6733,3.6753,3.6867,3.694,3.6954,3.6996,3.6993,3.7016,3.7058,3.7074,3.7205,3.7188,3.7206,3.7228,3.7357,3.736,3.7362,3.7343,3.7345,3.7346,0,0,0,0,0,0,3.6641,3.6731,3.6746,3.6818,3.6871,3.6947,3.6977,3.6997,3.705,3.705,3.7097,3.7113,3.7173,3.7207,3.7186,3.7285,3.7282,3.7288,3.7261,3.7263,3.7265,3.7255,3.7203,0,0,0,0,0,3.6642,3.6697,3.6771,3.6827,3.6853,3.691,3.6944,3.6971,3.7027,3.7049,3.7096,3.7147,3.72,3.7234,3.7286,3.7348,3.7363,3.7372,3.7374,3.7375,3.7379,3.7413,3.7417,3.7371,3.7371,3.7371,0,0,3.6644,3.67,3.6731,3.6821,3.6866,3.6918,3.6929,3.6984,3.7023,3.7057,3.7121,3.7157,3.7217,3.728,3.7311,3.731,3.7395,3.7378,3.7378,3.7382,3.7416,3.742,3.7424,3.7373,3.7373,3.7373,0,0,3.6675,3.6724,3.6775,3.682,3.6888,3.6925,3.6937,3.701,3.7036,3.7102,3.7128,3.7173,3.7263,3.7305,3.7337,3.7382,3.7398,3.7397,3.7405,3.7437,3.7441,3.7444,3.7459,3.7464,3.7402,3.7402,3.7402,0,3.6668,3.6751,3.6798,3.6852,3.689,3.6926,3.6976,3.7016,3.7096,3.712,3.712,3.7233,3.7276,3.7349,3.736,3.7385,3.7399,3.7389,3.7437,3.7441,3.7445,3.7459,3.7465,3.7401,3.7401,3.7401,3.7401,0,3.6739,3.6796,3.6828,3.6908,3.6949,3.7001,3.7053,3.7088,3.7112,3.7149,3.7213,3.7266,3.7329,3.7349,3.7371,3.7424,3.7422,3.7429,3.7426,3.7448,3.7462,3.7468,3.74,3.74,3.7401,3.7401,0,0,3.6752,3.6857,3.6868,3.6904,3.6981,3.7024,3.7076,3.714,3.7169,3.7223,3.7266,3.7341,3.7348,3.7385,3.7412,3.7441,3.7471,3.7444,3.7446,3.7446,3.7531,3.7525,3.7531,3.7483,3.7484,3.7485,3.7525,0,3.6791,3.689,3.6933,3.701,3.7062,3.7096,3.7141,3.7191,3.7227,3.7273,3.7311,3.7363,3.7369,3.7391,3.7421,3.7461,3.7489,3.7459,3.7521,3.7522,3.7505,3.7539,3.7533,3.7569,3.7531,3.7532,3.7533,0,3.6851,3.6908,3.6991,3.7062,3.7085,3.7125,3.7186,3.7232,3.7288,3.7312,3.7353,3.7379,3.7432,3.7426,3.7498,3.7477,3.7504,3.7527,3.753,3.7537,3.7529,3.7545,3.7581,3.7586,3.7542,3.7542,3.7541,0,3.6851,3.6948,3.701,3.704,3.7123,3.7151,3.7186,3.7242,3.7278,3.733,3.7353,3.741,3.7441,3.7483,3.7522,3.7514,3.759,3.7587,3.7608,3.7607,3.7623,3.7621,3.7663,3.7641,3.7641,3.7641,3.7641,0,3.6891,3.694,3.7011,3.7049,3.7104,3.7152,3.7204,3.7241,3.7291,3.7335,3.7366,3.7406,3.7456,3.7501,3.7532,3.7586,3.76,3.7618,3.7626,3.7615,3.7613,3.7634,3.7632,3.7642,3.7642,3.7642,3.7641,0,3.69,3.695,3.7019,3.7094,3.7113,3.715,3.7212,3.7249,3.7286,3.734,3.7356,3.7412,3.7467,3.7511,3.7581,3.7602,3.7658,3.7667,3.764,3.7644,3.7663,3.766,3.7719,3.7728,3.77,3.7701,3.7701,0,3.6921,3.6961,3.7039,3.7072,3.7108,3.7161,3.7198,3.7244,3.7281,3.7348,3.7376,3.7433,3.7482,3.7567,3.7613,3.7666,3.7676,3.7693,3.7684,3.7672,3.7675,3.7672,3.7676,3.7693,3.7693,3.7694,3.7694,0,3.6954,3.6977,3.7031,3.7093,3.7136,3.7186,3.7237,3.7261,3.7317,3.7355,3.7413,3.7451,3.7524,3.758,3.7638,3.7671,3.7691,3.7696,3.7704,3.7693,3.7676,3.7685,3.7642,3.7694,3.7694,3.7694,3.7694,3.7694,3.697,3.7006,3.7067,3.7125,3.7169,3.7215,3.7253,3.7295,3.7345,3.7411,3.7434,3.7493,3.7547,3.7628,3.7661,3.7706,3.7707,3.7718,3.7721,3.7723,3.7721,3.7669,3.7716,3.7716,3.7716,3.7716,3.7716,0,3.7004,3.7045,3.7098,3.7169,3.7214,3.7231,3.7288,3.7323,3.7376,3.7425,3.7473,3.7538,3.7592,3.7642,3.7698,3.7724,3.7734,3.7737,3.7735,3.7742,3.7717,3.7705,3.7728,3.7728,3.7728,3.7728,3.7728,3.7728,3.7027,3.7088,3.7118,3.72,3.724,3.7301,3.7331,3.7373,3.7413,3.7486,3.7532,3.7565,3.7614,3.7674,3.7723,3.7736,3.7755,3.7755,3.777,3.7746,3.7744,3.7742,3.7731,3.7759,3.7759,3.7791,3.7791,3.7792]}]]